TimeCDT,TemperatureF,Dew PointF,Humidity,Sea Level PressureIn,VisibilityMPH,Wind Direction,Wind SpeedMPH,Gust SpeedMPH,PrecipitationIn,Events,Conditions,WindDirDegrees,DateUTC
12:15 AM,64.4,62.6,94,29.80,7.0,SSE,10.4,18.4,N/A,,Mostly Cloudy,150,2013-10-31 05:15:00
12:35 AM,64.4,62.6,94,29.79,10.0,SE,6.9,-,N/A,,Scattered Clouds,130,2013-10-31 05:35:00
12:55 AM,64.4,62.6,94,29.79,10.0,Calm,Calm,-,N/A,,Scattered Clouds,0,2013-10-31 05:55:00
1:15 AM,64.4,62.6,94,29.79,10.0,Calm,Calm,-,N/A,,Overcast,0,2013-10-31 06:15:00
1:35 AM,64.4,62.6,94,29.78,10.0,East,4.6,-,N/A,,Overcast,80,2013-10-31 06:35:00
1:55 AM,62.6,62.6,100,29.77,10.0,NE,4.6,-,N/A,,Overcast,50,2013-10-31 06:55:00
2:15 AM,62.6,62.6,100,29.77,10.0,Calm,Calm,-,N/A,,Overcast,0,2013-10-31 07:15:00
2:35 AM,62.6,62.6,100,29.76,10.0,East,4.6,-,N/A,,Overcast,90,2013-10-31 07:35:00
2:55 AM,62.6,62.6,100,29.75,10.0,East,5.8,-,N/A,,Overcast,90,2013-10-31 07:55:00
3:15 AM,62.6,62.6,100,29.72,10.0,East,6.9,-,N/A,,Mostly Cloudy,90,2013-10-31 08:15:00
3:35 AM,62.6,62.6,100,29.71,10.0,East,6.9,-,N/A,,Mostly Cloudy,80,2013-10-31 08:35:00
3:55 AM,62.6,62.6,100,29.71,10.0,East,9.2,-,N/A,,Mostly Cloudy,100,2013-10-31 08:55:00
4:15 AM,62.6,62.6,100,29.70,10.0,East,6.9,-,N/A,,Scattered Clouds,90,2013-10-31 09:15:00
4:35 AM,62.6,62.6,100,29.67,10.0,East,8.1,-,N/A,,Scattered Clouds,100,2013-10-31 09:35:00
4:55 AM,62.6,62.6,100,29.66,10.0,ESE,5.8,-,N/A,,Clear,110,2013-10-31 09:55:00
5:15 AM,62.6,62.6,100,29.66,10.0,East,4.6,-,N/A,,Mostly Cloudy,80,2013-10-31 10:15:00
5:35 AM,64.4,62.6,94,29.65,10.0,East,6.9,-,N/A,,Overcast,80,2013-10-31 10:35:00
5:55 AM,62.6,62.6,100,29.64,10.0,ENE,4.6,-,N/A,,Overcast,70,2013-10-31 10:55:00
6:15 AM,62.6,62.6,100,29.65,10.0,ENE,3.5,-,N/A,,Overcast,70,2013-10-31 11:15:00
6:35 AM,62.6,62.6,100,29.64,10.0,ESE,5.8,-,N/A,,Overcast,110,2013-10-31 11:35:00
6:55 AM,62.6,62.6,100,29.64,7.0,East,3.5,-,N/A,,Overcast,100,2013-10-31 11:55:00
7:15 AM,62.6,62.6,100,29.66,10.0,Calm,Calm,-,N/A,,Overcast,0,2013-10-31 12:15:00
7:35 AM,64.4,62.6,94,29.65,7.0,Calm,Calm,-,N/A,,Overcast,0,2013-10-31 12:35:00
7:55 AM,62.6,62.6,100,29.64,1.8,Calm,Calm,-,N/A,,Overcast,0,2013-10-31 12:55:00
8:15 AM,62.6,62.6,100,29.62,1.5,East,4.6,-,N/A,,Overcast,100,2013-10-31 13:15:00
8:35 AM,62.6,62.6,100,29.62,5.0,Calm,Calm,-,N/A,,Scattered Clouds,0,2013-10-31 13:35:00
8:55 AM,64.4,64.4,100,29.62,10.0,Calm,Calm,-,N/A,,Mostly Cloudy,0,2013-10-31 13:55:00
9:15 AM,64.4,64.4,100,29.62,10.0,Calm,Calm,-,N/A,,Overcast,0,2013-10-31 14:15:00
9:35 AM,64.4,64.4,100,29.62,10.0,Calm,Calm,-,N/A,,Overcast,0,2013-10-31 14:35:00
9:55 AM,66.2,66.2,100,29.63,10.0,SSW,5.8,-,N/A,,Overcast,210,2013-10-31 14:55:00
10:15 AM,68.0,64.4,88,29.63,10.0,South,4.6,-,N/A,,Overcast,190,2013-10-31 15:15:00
10:35 AM,68.0,66.2,94,29.61,10.0,South,5.8,-,N/A,,Overcast,180,2013-10-31 15:35:00
10:55 AM,71.6,66.2,83,29.60,10.0,SW,10.4,-,N/A,,Mostly Cloudy,220,2013-10-31 15:55:00
11:15 AM,71.6,66.2,83,29.59,10.0,SW,12.7,18.4,N/A,,Scattered Clouds,230,2013-10-31 16:15:00
11:35 AM,73.4,64.4,73,29.59,10.0,SW,13.8,20.7,N/A,,Scattered Clouds,230,2013-10-31 16:35:00
11:55 AM,75.2,60.8,61,29.59,10.0,WSW,18.4,25.3,N/A,,Clear,240,2013-10-31 16:55:00
12:15 PM,75.2,59.0,57,29.58,10.0,SW,18.4,25.3,N/A,,Clear,230,2013-10-31 17:15:00
12:35 PM,75.2,57.2,53,29.59,10.0,WSW,21.9,27.6,N/A,,Scattered Clouds,250,2013-10-31 17:35:00
12:55 PM,73.4,39.2,29,29.60,10.0,WSW,28.8,35.7,N/A,,Clear,250,2013-10-31 17:55:00
1:15 PM,73.4,41.0,31,29.60,10.0,West,26.5,34.5,N/A,,Clear,260,2013-10-31 18:15:00
1:35 PM,73.4,41.0,31,29.60,10.0,West,26.5,32.2,N/A,,Clear,260,2013-10-31 18:35:00
1:55 PM,71.6,42.8,35,29.60,10.0,West,25.3,33.4,N/A,,Clear,260,2013-10-31 18:55:00
2:15 PM,71.6,44.6,38,29.61,10.0,WSW,21.9,33.4,N/A,,Clear,250,2013-10-31 19:15:00
2:35 PM,71.6,44.6,38,29.62,10.0,West,24.2,31.1,N/A,,Clear,260,2013-10-31 19:35:00
2:55 PM,68.0,46.4,46,29.62,10.0,West,25.3,34.5,N/A,,Scattered Clouds,270,2013-10-31 19:55:00
3:15 PM,68.0,48.2,49,29.64,10.0,West,24.2,32.2,N/A,,Scattered Clouds,280,2013-10-31 20:15:00
3:35 PM,66.2,50.0,56,29.66,10.0,West,23.0,31.1,N/A,,Mostly Cloudy,270,2013-10-31 20:35:00
3:55 PM,64.4,50.0,59,29.67,10.0,West,23.0,32.2,N/A,,Mostly Cloudy,270,2013-10-31 20:55:00
4:15 PM,62.6,50.0,63,29.69,10.0,West,23.0,31.1,N/A,,Overcast,280,2013-10-31 21:15:00
4:35 PM,62.6,50.0,63,29.68,10.0,WNW,19.6,25.3,N/A,,Mostly Cloudy,290,2013-10-31 21:35:00
4:55 PM,64.4,50.0,59,29.70,10.0,WNW,20.7,25.3,N/A,,Scattered Clouds,290,2013-10-31 21:55:00
5:15 PM,62.6,50.0,63,29.71,10.0,WNW,15.0,23.0,N/A,,Mostly Cloudy,290,2013-10-31 22:15:00
5:35 PM,62.6,50.0,63,29.72,10.0,WNW,15.0,23.0,N/A,,Scattered Clouds,290,2013-10-31 22:35:00
5:55 PM,62.6,50.0,63,29.72,10.0,West,8.1,-,N/A,,Scattered Clouds,280,2013-10-31 22:55:00
6:15 PM,60.8,48.2,63,29.74,10.0,West,10.4,-,N/A,,Scattered Clouds,280,2013-10-31 23:15:00
6:35 PM,60.8,46.4,59,29.74,10.0,WNW,6.9,-,N/A,,Clear,290,2013-10-31 23:35:00
6:55 PM,59.0,46.4,63,29.74,10.0,West,3.5,-,N/A,,Clear,280,2013-10-31 23:55:00
7:15 PM,55.4,46.4,72,29.75,10.0,SW,4.6,-,N/A,,Clear,220,2013-11-01 00:15:00
7:35 PM,53.6,46.4,77,29.76,10.0,SW,4.6,-,N/A,,Clear,230,2013-11-01 00:35:00
7:55 PM,55.4,48.2,77,29.77,10.0,SW,3.5,-,N/A,,Clear,220,2013-11-01 00:55:00
8:15 PM,53.6,48.2,82,29.77,10.0,SW,4.6,-,N/A,,Clear,230,2013-11-01 01:15:00
8:35 PM,55.4,48.2,77,29.77,10.0,Calm,Calm,-,N/A,,Clear,0,2013-11-01 01:35:00
8:55 PM,53.6,48.2,82,29.78,10.0,Calm,Calm,-,N/A,,Clear,0,2013-11-01 01:55:00
9:15 PM,53.6,48.2,82,29.78,10.0,Calm,Calm,-,N/A,,Clear,0,2013-11-01 02:15:00
9:35 PM,51.8,48.2,88,29.78,10.0,Calm,Calm,-,N/A,,Clear,0,2013-11-01 02:35:00
9:55 PM,51.8,48.2,88,29.79,10.0,Calm,Calm,-,N/A,,Clear,0,2013-11-01 02:55:00
10:15 PM,50.0,48.2,94,29.79,10.0,Calm,Calm,-,N/A,,Clear,0,2013-11-01 03:15:00
10:35 PM,51.8,50.0,94,29.80,10.0,Calm,Calm,-,N/A,,Clear,0,2013-11-01 03:35:00
10:55 PM,50.0,46.4,87,29.82,10.0,Calm,Calm,-,N/A,,Clear,0,2013-11-01 03:55:00
11:15 PM,50.0,48.2,94,29.82,10.0,Calm,Calm,-,N/A,,Clear,0,2013-11-01 04:15:00
11:35 PM,50.0,48.2,94,29.83,10.0,Calm,Calm,-,N/A,,Clear,0,2013-11-01 04:35:00
11:55 PM,50.0,50.0,100,29.83,10.0,Calm,Calm,-,N/A,,Clear,0,2013-11-01 04:55:00